Location: Fensholt
(55.9856°N, 10.0808°E)
Time: 18:36:22
(UTC+00:00)

STARLINK-1326 - Pass Details

Date: 07 June 2020
Orbit: 378 x 381 km, 53.0° (Epoch: 07 July)

Event Time Altitude Azimuth Distance (km) Brightness Sun altitude
Rises 01:25:09 0° 274° (W) 2,258 6.5 -6.8°
Reaches altitude 10° 01:27:18 10° 264° (W) 1,404 5.4 -6.6°
Maximum altitude 01:30:10 33° 198° (SSW) 663 3.5 -6.4°
Drops below altitude 10° 01:33:02 10° 132° (SE) 1,400 5.6 -6.2°
Sets 01:35:10 0° 123° (ESE) 2,251 6.7 -6.1°
